Location: Plainartige
(45.6866°N, 1.7993°E)
Time: 05:30:27
(UTC+00:00)

Envisat - Pass Details

Date: 25 January 2022
Orbit: 764 x 765 km, 98.2° (Epoch: 22 May)

Event Time Altitude Azimuth Distance (km) Brightness Sun altitude
Rises 06:33:52 0° 357° (N) 3,241 6.0 -8.6°
Reaches altitude 10° 06:37:16 10° 333° (NNW) 2,310 5.1 -8.0°
Maximum altitude 06:39:47 14° 303° (WNW) 2,043 4.6 -7.6°
Drops below altitude 10° 06:42:18 10° 273° (W) 2,304 4.9 -7.2°
Sets 06:45:42 0° 249° (WSW) 3,225 5.8 -6.7°
